FW8688 Weather Reports


time (UTC)temp
C
wind
direction
speed
KPH
gust
KPH
rain 1hr
cm
rain 24hr
cm
rain mn
cm
humidity
%
barometer
mb
20260505055305 14 186 3.2 11.3 0.00 0.00 0.00 56 1006.3
20260505054805 14 222 9.7 24.1 0.00 0.00 0.00 56 1006.3
20260505054305 14 224 8.0 16.1 0.00 0.00 0.00 57 1006.3
20260505053304 14 231 16.1 24.1 0.00 0.00 0.00 56 1006.3
20260505052805 14 234 8.0 12.9 0.00 0.00 0.00 56 1006.3
20260505052305 14 215 0.0 8.0 0.00 0.00 0.00 56 1006.2
20260505051805 15 213 6.4 12.9 0.00 0.00 0.00 56 1006.2
20260505051305 15 238 8.0 19.3 0.00 0.00 0.00 56 1006.2
20260505050805 15 237 8.0 20.9 0.00 0.00 0.00 56 1005.9
20260505050304 15 223 19.3 25.7 0.00 0.00 0.00 55 1005.9
20260505041304 16 251 11.3 22.5 0.00 0.00 0.00 48 1004.6
20260505040805 16 234 11.3 14.5 0.00 0.00 0.00 47 1004.6
20260505035804 16 230 9.7 12.9 0.00 0.00 0.00 49 1004.6
20260505035304 16 192 6.4 11.3 0.00 0.00 0.00 54 1004.6
20260505034805 17 157 8.0 11.3 0.00 0.00 0.00 53 1004.6
20260505034305 17 155 6.4 14.5 0.00 0.00 0.00 50 1004.6
20260505033805 17 151 9.7 12.9 0.00 0.00 0.00 48 1004.6
20260505033304 17 181 6.4 14.5 0.00 0.00 0.00 48 1004.6
20260505032305 17 214 6.4 16.1 0.00 0.00 0.00 51 1004.6
20260505031804 17 207 6.4 12.9 0.00 0.00 0.00 51 1004.5
20260505030805 17 191 8.0 11.3 0.00 0.00 0.00 48 1004.0
20260505030304 17 179 8.0 11.3 0.00 0.00 0.00 47 1004.0
20260505025805 17 163 8.0 14.5 0.00 0.00 0.00 46 1004.0
20260505025305 17 170 8.0 19.3 0.00 0.00 0.00 45 1003.8
20260505024804 17 178 9.7 16.1 0.00 0.00 0.00 44 1003.8
20260505024305 17 163 9.7 16.1 0.00 0.00 0.00 45 1003.8
20260505023804 17 180 11.3 19.3 0.00 0.00 0.00 46 1003.7
20260505023305 18 172 11.3 19.3 0.00 0.00 0.00 45 1003.6
20260505022305 18 194 9.7 14.5 0.00 0.00 0.00 39 1003.4
20260505021805 18 151 4.8 14.5 0.00 0.00 0.00 39 1003.4
20260505021304 18 167 11.3 19.3 0.00 0.00 0.00 39 1003.3
20260505020804 18 140 9.7 14.5 0.00 0.00 0.00 39 1003.2
20260505020304 18 145 11.3 19.3 0.00 0.00 0.00 38 1003.1
20260505015804 18 154 9.7 19.3 0.00 0.00 0.00 38 1003.4
20260505015304 18 126 8.0 24.1 0.00 0.00 0.00 38 1003.4
20260505014804 18 145 11.3 25.7 0.00 0.00 0.00 37 1003.4
20260505014305 18 151 14.5 19.3 0.00 0.00 0.00 37 1003.4
20260505013804 18 148 11.3 16.1 0.00 0.00 0.00 38 1003.4
20260505013305 18 160 8.0 14.5 0.00 0.00 0.00 38 1003.5
20260505011805 18 132 14.5 25.7 0.00 0.00 0.00 38 1003.7
20260505011304 19 135 12.9 25.7 0.00 0.00 0.00 38 1003.7
20260505010804 19 136 14.5 22.5 0.00 0.00 0.00 38 1003.7
20260505010304 20 139 16.1 29.0 0.00 0.00 0.00 38 1003.7
20260505005805 20 154 11.3 19.3 0.00 0.00 0.00 34 1003.5
20260505005304 21 182 11.3 19.3 0.00 0.00 0.00 30 1003.4
20260505004804 21 180 9.7 14.5 0.00 0.00 0.00 30 1003.4
20260505004305 21 172 4.8 9.7 0.00 0.00 0.00 29 1003.4
20260505003304 21 151 11.3 16.1 0.00 0.00 0.00 30 1003.5
20260505002804 21 156 8.0 11.3 0.00 0.00 0.00 30 1003.5
20260505002305 21 144 3.2 9.7 0.00 0.00 0.00 29 1003.5
20260505001804 21 165 6.4 16.1 0.00 0.00 0.00 30 1003.6
20260505001304 21 142 6.4 19.3 0.00 0.00 0.00 29 1003.6
20260505000804 21 157 4.8 19.3 0.00 0.00 0.00 29 1003.6
20260505000304 21 0 1.6 8.0 0.00 0.00 0.00 30 1003.6
20260504235305 21 352 8.0 12.9 0.00 0.00 0.00 30 1003.6
20260504234804 21 327 4.8 11.3 0.00 0.00 0.00 29 1003.6
20260504234304 21 321 8.0 14.5 0.00 0.00 0.00 30 1003.6
20260504233804 21 305 9.7 19.3 0.00 0.00 0.00 29 1003.6
20260504233304 21 316 8.0 14.5 0.00 0.00 0.00 30 1003.5
20260504231804 21 278 8.0 14.5 0.00 0.00 0.00 30 1003.5
20260504231305 21 316 16.1 20.9 0.00 0.00 0.00 29 1003.5
20260504230804 21 38 8.0 16.1 0.00 0.00 0.00 32 1003.5
20260504230305 21 97 8.0 19.3 0.00 0.00 0.00 31 1003.6
20260504225804 22 124 8.0 19.3 0.00 0.00 0.00 30 1003.6
20260504225304 21 105 6.4 12.9 0.00 0.00 0.00 30 1003.7
20260504224805 21 19 6.4 14.5 0.00 0.00 0.00 32 1003.6
20260504224304 21 43 6.4 20.9 0.00 0.00 0.00 30 1003.5
20260504223805 21 65 12.9 33.8 0.00 0.00 0.00 30 1003.5
20260504223304 22 48 11.3 20.9 0.00 0.00 0.00 29 1003.5
20260504222804 22 39 8.0 20.9 0.00 0.00 0.00 29 1003.5
20260504222305 22 119 1.6 3.2 0.00 0.00 0.00 28 1003.5
20260504221804 22 44 4.8 12.9 0.00 0.00 0.00 29 1003.6
20260504220804 22 37 4.8 9.7 0.00 0.00 0.00 28 1003.4
20260504220304 22 294 9.7 16.1 0.00 0.00 0.00 28 1003.4
20260504215804 22 240 11.3 16.1 0.00 0.00 0.00 28 1003.5
20260504215305 21 299 9.7 19.3 0.00 0.00 0.00 29 1003.7
20260504214804 21 304 9.7 16.1 0.00 0.00 0.00 30 1003.7
20260504214305 21 300 11.3 19.3 0.00 0.00 0.00 30 1003.7
20260504213804 21 292 9.7 24.1 0.00 0.00 0.00 31 1003.7
20260504213304 21 275 14.5 24.1 0.00 0.00 0.00 31 1004.0
20260504212804 22 277 14.5 24.1 0.00 0.00 0.00 30 1004.0
20260504212304 21 277 11.3 19.3 0.00 0.00 0.00 31 1004.0
20260504210804 21 280 9.7 24.1 0.00 0.00 0.00 31 1004.2
20260504210304 21 246 11.3 19.3 0.00 0.00 0.00 30 1004.3
20260504205804 21 179 9.7 14.5 0.00 0.00 0.00 29 1004.2
20260504205304 21 183 11.3 19.3 0.00 0.00 0.00 30 1004.2
20260504204804 21 173 9.7 12.9 0.00 0.00 0.00 31 1004.2
20260504204304 21 176 12.9 19.3 0.00 0.00 0.00 30 1004.2
20260504203804 22 165 9.7 20.9 0.00 0.00 0.00 32 1004.3
20260504203304 22 169 12.9 20.9 0.00 0.00 0.00 30 1004.3
20260504202804 22 159 16.1 20.9 0.00 0.00 0.00 30 1004.3
20260504202305 22 168 14.5 22.5 0.00 0.00 0.00 28 1004.3
20260504201804 22 161 14.5 20.9 0.00 0.00 0.00 28 1004.3
20260504201304 22 180 14.5 22.5 0.00 0.00 0.00 28 1004.5
20260504200805 22 180 9.7 22.5 0.00 0.00 0.00 28 1004.4
20260504200304 22 165 9.7 24.1 0.00 0.00 0.00 28 1004.5
20260504195804 22 168 11.3 19.3 0.00 0.00 0.00 27 1004.6
20260504194804 22 168 11.3 19.3 0.00 0.00 0.00 28 1004.7
20260504194304 22 129 11.3 22.5 0.00 0.00 0.00 27 1004.7
20260504193804 22 155 11.3 19.3 0.00 0.00 0.00 28 1004.9
20260504193304 22 160 14.5 22.5 0.00 0.00 0.00 29 1004.9
20260504192804 22 147 9.7 19.3 0.00 0.00 0.00 28 1004.9
20260504192305 22 178 11.3 19.3 0.00 0.00 0.00 29 1005.0
20260504191805 22 136 12.9 19.3 0.00 0.00 0.00 29 1005.0
20260504191304 22 146 14.5 22.5 0.00 0.00 0.00 29 1005.1
20260504190804 22 149 11.3 19.3 0.00 0.00 0.00 29 1005.5
20260504185804 22 144 14.5 24.1 0.00 0.00 0.00 31 1005.5
20260504185304 22 163 11.3 19.3 0.00 0.00 0.00 30 1005.5
20260504184805 22 162 11.3 22.5 0.00 0.00 0.00 30 1005.6
20260504184304 22 139 9.7 19.3 0.00 0.00 0.00 31 1005.6
20260504183804 22 150 12.9 22.5 0.00 0.00 0.00 31 1005.5
20260504183304 21 158 14.5 22.5 0.00 0.00 0.00 31 1005.7
20260504182805 21 148 9.7 19.3 0.00 0.00 0.00 32 1005.6
20260504182304 21 145 16.1 24.1 0.00 0.00 0.00 31 1005.7
20260504181804 21 144 12.9 22.5 0.00 0.00 0.00 31 1005.9
20260504180805 21 151 11.3 22.5 0.00 0.00 0.00 31 1006.0
20260504180304 21 152 9.7 19.3 0.00 0.00 0.00 31 1006.2
20260504175804 21 145 11.3 19.3 0.00 0.00 0.00 32 1006.2
20260504175304 21 164 9.7 19.3 0.00 0.00 0.00 32 1006.2
20260504174805 21 106 8.0 19.3 0.00 0.00 0.00 32 1006.4
20260504174304 21 129 9.7 19.3 0.00 0.00 0.00 33 1006.4
20260504173805 20 142 11.3 16.1 0.00 0.00 0.00 33 1006.3
20260504173305 20 116 9.7 19.3 0.00 0.00 0.00 33 1006.5
20260504172804 20 165 9.7 24.1 0.00 0.00 0.00 33 1006.5
20260504171804 20 157 11.3 19.3 0.00 0.00 0.00 33 1006.5
20260504171304 20 137 8.0 19.3 0.00 0.00 0.00 34 1006.4
20260504170804 20 151 4.8 11.3 0.00 0.00 0.00 37 1006.6
20260504170305 20 159 4.8 16.1 0.00 0.00 0.00 39 1006.6
20260504150804 16 180 8.0 9.7 0.00 0.00 0.00 49 1007.2
20260504150304 16 187 3.2 11.3 0.00 0.00 0.00 52 1007.3
20260504141304 14 184 0.0 4.8 0.00 0.00 0.00 60 1007.5
20260504140804 14 193 3.2 4.8 0.00 0.00 0.00 62 1007.6
20260504140304 14 176 1.6 4.8 0.00 0.00 0.00 62 1007.3
20260504130804 13 76 0.0 0.0 0.00 0.00 0.00 62 1007.3
20260504120304 14 140 8.0 14.5 0.00 0.00 0.00 57 1007.4
20260504110304 12 150 3.2 4.8 0.00 0.00 0.00 53 1007.3
20260504081804 13 67 1.6 3.2 0.00 0.00 0.00 48 1007.0
20260504081303 13 34 0.0 0.0 0.00 0.00 0.00 48 1007.0
20260504080804 13 74 3.2 8.0 0.00 0.00 0.00 48 1007.0
20260504080304 13 73 6.4 9.7 0.00 0.00 0.00 46 1007.0
20260504070304 13 56 3.2 4.8 0.00 0.00 0.00 35 1006.0